Location: Columbia, SC
(34.0000°N, 81.0300°W)
Time: 06:38:44
(UTC-04:00)

Tiangong 1 - Visible Passes

Search period start: 01 April 2015 00:00
Search period end: 11 April 2015 00:00
Orbit: 337 x 352 km, 42.8° (Epoch: 01 April)

Date Brightness Start Highest point End Pass type
(mag) Time Alt. Az. Time Alt. Az. Time Alt. Az.
01 Apr 3.1 20:17:30 10° NW 20:19:35 17° N 20:21:40 10° NE visible
01 Apr 4.0 21:52:54 10° NW 21:53:41 17° NW 21:53:41 17° NW visible
02 Apr 2.3 20:40:29 10° NW 20:43:05 28° NNE 20:44:29 19° ENE visible
03 Apr 0.8 21:03:22 10° WNW 21:06:17 69° NNE 21:06:36 61° ENE visible
04 Apr 2.4 21:26:25 10° WNW 21:28:37 32° WSW 21:28:37 32° WSW visible
05 Apr 0.8 20:13:15 10° WNW 20:16:10 78° NNE 20:19:05 10° ESE visible
06 Apr 2.4 20:36:04 10° W 20:38:41 30° SW 20:41:06 11° SSE visible
